Date String (YYYY-MM-DD hh:mm:ss) UTC,Instrument flags,absolute air pressure of the measurement (hPa),sample flow rate (lpm),inlet stack bypass flow (lpm),air temperature of the measurement (°C),ambient temperature measured by the external sensor (°C),aerosol sample conditioner tube jacket temperature (°C),OPC LED temperature (°C),internal box temperature (°C),relative humidity of the measurement (%),span deviation,mass concentration of particles derived from Lorenz-Mie calculation of OPC scattering (μg/m³),mass concentration of particles derived from Lorenz-Mie calculation of OPC scattering (μg/m³),mass concentration of particles derived from Lorenz-Mie calculation of OPC scattering (μg/m³)
DateTimeUTC,F1_M11,P_M11,Q1_M11,Q2_M11,T1_M11,T2_M11,T3_M11,T4_M11,T5_M11,U1_M11,ZSPAN_M11,X0_M11,X2_M11,X1_M11
2023-12-31 19:00:00,SystemResetWarning,0830.6,5.00,000.00,022.6,022.0,000.0,030.7,024.1,13.7,0000.0,0010.17,0004.84,0004.35
2023-12-31 19:01:00,SystemResetWarning,0830.6,5.00,000.00,022.6,022.0,000.0,030.7,024.1,13.7,0000.0,0009.83,0004.82,0004.36
2023-12-31 19:02:00,SystemResetWarning,0830.5,5.00,000.00,022.6,022.0,000.0,030.8,024.1,13.8,0000.0,0009.60,0004.85,0004.37
2023-12-31 19:03:00,SystemResetWarning,0830.5,5.00,000.00,022.6,022.0,000.0,030.8,024.2,13.7,0000.0,0008.66,0004.85,0004.40
2023-12-31 19:04:00,SystemResetWarning,0830.7,5.00,000.00,022.7,022.0,000.0,030.8,024.2,13.7,0000.0,0008.85,0004.92,0004.42
2023-12-31 19:05:00,SystemResetWarning,0830.7,5.00,000.00,022.7,022.1,000.0,030.8,024.2,13.7,0000.0,0009.29,0004.96,0004.45
2023-12-31 19:06:00,SystemResetWarning,0830.6,5.01,000.00,022.7,022.1,000.0,030.8,024.2,13.7,0000.0,0009.42,0004.97,0004.48
2023-12-31 19:07:00,SystemResetWarning,0830.6,5.00,000.00,022.7,022.1,000.0,030.8,024.3,13.8,0000.0,0009.96,0005.00,0004.51
2023-12-31 19:08:00,SystemResetWarning,0830.8,5.00,000.00,022.7,022.1,000.0,030.9,024.3,13.6,0000.0,0010.46,0005.05,0004.53
2023-12-31 19:09:00,SystemResetWarning,0830.6,4.99,000.00,022.8,022.1,000.0,030.9,024.3,13.6,0000.0,0010.78,0005.08,0004.55
2023-12-31 19:10:00,SystemResetWarning,0830.5,5.00,000.00,022.8,022.2,000.0,030.9,024.3,13.6,0000.0,0010.43,0005.09,0004.56
2023-12-31 19:11:00,SystemResetWarning,0830.4,5.00,000.00,022.8,022.2,000.0,030.9,024.4,13.6,0000.0,0010.67,0005.09,0004.59
2023-12-31 19:12:00,SystemResetWarning,0830.4,5.00,000.00,022.8,022.2,000.0,030.9,024.4,13.5,0000.0,0010.74,0005.09,0004.62
2023-12-31 19:13:00,SystemResetWarning,0830.4,5.01,000.00,022.8,022.2,000.0,030.9,024.4,13.6,0000.0,0010.66,0005.07,0004.62
2023-12-31 19:14:00,SystemResetWarning,0830.5,5.00,000.00,022.9,022.3,000.0,031.0,024.4,13.6,0000.0,0011.34,0005.05,0004.62
2023-12-31 19:15:00,SystemResetWarning,0830.4,4.99,000.00,022.9,022.3,000.0,031.0,024.5,13.6,0000.0,0012.04,0005.01,0004.62
2023-12-31 19:16:00,SystemResetWarning,0830.4,5.00,000.00,022.9,022.3,000.0,031.0,024.5,13.5,0000.0,0011.65,0005.00,0004.63
2023-12-31 19:17:00,SystemResetWarning,0830.4,4.99,000.00,022.9,022.3,000.0,031.0,024.5,13.5,0000.0,0011.50,0004.99,0004.64
2023-12-31 19:18:00,SystemResetWarning,0830.4,5.00,000.00,022.9,022.3,000.0,031.0,024.5,13.4,0000.0,0011.10,0004.99,0004.63
2023-12-31 19:19:00,SystemResetWarning,0830.3,5.00,000.00,023.0,022.4,000.0,031.1,024.5,13.4,0000.0,0010.55,0004.98,0004.63
2023-12-31 19:20:00,SystemResetWarning,0830.3,5.00,000.00,023.0,022.4,000.0,031.1,024.6,13.4,0000.0,0009.90,0004.97,0004.64
2023-12-31 19:21:00,SystemResetWarning,0830.3,5.00,000.00,023.0,022.4,000.0,031.1,024.5,13.3,0000.0,0010.20,0004.97,0004.65
2023-12-31 19:22:00,SystemResetWarning,0830.3,5.00,000.00,023.0,022.4,000.0,031.1,024.6,13.3,0000.0,0010.21,0004.99,0004.65
2023-12-31 19:23:00,SystemResetWarning,0830.3,5.00,000.00,023.0,022.4,000.0,031.1,024.6,13.3,0000.0,0010.31,0005.01,0004.64
2023-12-31 19:24:00,SystemResetWarning,0830.3,5.00,000.00,023.0,022.5,000.0,031.2,024.6,13.3,0000.0,0010.28,0005.01,0004.64
2023-12-31 19:25:00,SystemResetWarning,0830.3,5.00,000.00,023.1,022.5,000.0,031.2,024.6,13.3,0000.0,0009.83,0005.01,0004.64
2023-12-31 19:26:00,SystemResetWarning,0830.3,5.00,000.00,023.1,022.5,000.0,031.2,024.6,13.3,0000.0,0009.16,0005.01,0004.64
2023-12-31 19:27:00,SystemResetWarning,0830.3,5.00,000.00,023.1,022.5,000.0,031.2,024.6,13.3,0000.0,0009.49,0005.02,0004.63
2023-12-31 19:28:00,SystemResetWarning,0830.2,5.00,000.00,023.1,022.5,000.0,031.2,024.7,13.3,0000.0,0009.54,0005.03,0004.62
2023-12-31 19:29:00,SystemResetWarning,0830.3,5.00,000.00,023.1,022.5,000.0,031.2,024.7,13.3,0000.0,0009.56,0005.04,0004.62
2023-12-31 19:30:00,SystemResetWarning,0830.2,5.00,000.00,023.1,022.5,000.0,031.3,024.7,13.3,0000.0,0009.55,0005.03,0004.62
2023-12-31 19:31:00,SystemResetWarning,0830.2,4.99,000.00,023.2,022.5,000.0,031.3,024.7,13.3,0000.0,0009.57,0005.04,0004.61
2023-12-31 19:32:00,SystemResetWarning,0830.2,4.99,000.00,023.2,022.6,000.0,031.3,024.7,13.4,0000.0,0009.15,0005.05,0004.60
2023-12-31 19:33:00,SystemResetWarning,0830.2,5.00,000.00,023.2,022.6,000.0,031.3,024.7,13.3,0000.0,0009.45,0005.05,0004.58
2023-12-31 19:34:00,SystemResetWarning,0830.2,5.00,000.00,023.2,022.6,000.0,031.3,024.7,13.3,0000.0,0009.71,0005.01,0004.58
2023-12-31 19:35:00,SystemResetWarning,0830.3,5.00,000.00,023.2,022.6,000.0,031.3,024.7,13.3,0000.0,0010.15,0004.98,0004.57
2023-12-31 19:36:00,SystemResetWarning,0830.2,5.01,000.00,023.2,022.6,000.0,031.4,024.7,13.3,0000.0,0010.19,0005.02,0004.56
2023-12-31 19:37:00,SystemResetWarning,0830.2,5.00,000.00,023.2,022.6,000.0,031.4,024.8,13.3,0000.0,0009.71,0004.99,0004.55
2023-12-31 19:38:00,SystemResetWarning,0830.2,5.01,000.00,023.2,022.6,000.0,031.4,024.8,13.3,0000.0,0009.76,0004.97,0004.54
2023-12-31 19:39:00,SystemResetWarning,0830.2,5.00,000.00,023.3,022.6,000.0,031.4,024.8,13.2,0000.0,0010.08,0004.98,0004.54
2023-12-31 19:40:00,SystemResetWarning,0830.2,4.99,000.00,023.3,022.6,000.0,031.4,024.8,13.1,0000.0,0009.95,0004.94,0004.52
2023-12-31 19:41:00,SystemResetWarning,0830.3,4.99,000.00,023.3,022.6,000.0,031.4,024.8,13.2,0000.0,0010.12,0004.93,0004.51
2023-12-31 19:42:00,SystemResetWarning,0830.2,5.01,000.00,023.3,022.7,000.0,031.4,024.8,13.3,0000.0,0010.17,0004.93,0004.51
2023-12-31 19:43:00,SystemResetWarning,0830.2,5.00,000.00,023.3,022.7,000.0,031.5,024.9,13.2,0000.0,0010.55,0004.96,0004.51
2023-12-31 19:44:00,SystemResetWarning,0830.2,5.00,000.00,023.3,022.7,000.0,031.5,024.8,13.1,0000.0,0010.19,0004.99,0004.52
2023-12-31 19:45:00,SystemResetWarning,0830.2,4.99,000.00,023.3,022.7,000.0,031.5,024.8,13.1,0000.0,0009.79,0005.02,0004.52
2023-12-31 19:46:00,SystemResetWarning,0830.2,5.00,000.00,023.4,022.7,000.0,031.5,024.9,13.1,0000.0,0009.32,0005.02,0004.51
2023-12-31 19:47:00,SystemResetWarning,0830.2,5.01,000.00,023.4,022.7,000.0,031.5,024.9,13.1,0000.0,0009.26,0005.00,0004.52
2023-12-31 19:48:00,SystemResetWarning,0830.1,5.00,000.00,023.4,022.7,000.0,031.5,024.9,13.1,0000.0,0009.35,0005.04,0004.52
2023-12-31 19:49:00,SystemResetWarning,0830.1,5.01,000.00,023.4,022.7,000.0,031.5,024.9,13.1,0000.0,0009.32,0005.09,0004.53
2023-12-31 19:50:00,SystemResetWarning,0830.1,5.00,000.00,023.4,022.7,000.0,031.6,024.9,13.1,0000.0,0008.68,0005.06,0004.54
2023-12-31 19:51:00,SystemResetWarning,0830.1,5.00,000.00,023.4,022.7,000.0,031.6,024.9,13.0,0000.0,0008.83,0005.09,0004.54
2023-12-31 19:52:00,SystemResetWarning,0830.1,5.00,000.00,023.4,022.8,000.0,031.6,024.9,12.9,0000.0,0008.87,0005.07,0004.54
2023-12-31 19:53:00,SystemResetWarning,0830.1,4.99,000.00,023.4,022.8,000.0,031.6,024.9,12.9,0000.0,0009.13,0005.04,0004.53
2023-12-31 19:54:00,SystemResetWarning,0830.1,5.01,000.00,023.4,022.8,000.0,031.6,024.9,12.9,0000.0,0009.11,0005.04,0004.53
2023-12-31 19:55:00,SystemResetWarning,0830.1,5.01,000.00,023.4,022.8,000.0,031.6,024.9,13.0,0000.0,0009.07,0004.99,0004.53
2023-12-31 19:56:00,SystemResetWarning,0830.1,5.01,000.00,023.4,022.8,000.0,031.6,024.9,13.0,0000.0,0009.49,0005.01,0004.55
2023-12-31 19:57:00,SystemResetWarning,0830.1,5.01,000.00,023.5,022.8,000.0,031.6,024.9,12.9,0000.0,0009.88,0005.03,0004.56
2023-12-31 19:58:00,SystemResetWarning,0830.1,5.00,000.00,023.5,022.8,000.0,031.7,024.9,13.0,0000.0,0009.81,0005.00,0004.56
2023-12-31 19:59:00,SystemResetWarning,0830.1,4.99,000.00,023.5,022.8,000.0,031.7,024.9,13.0,0000.0,0009.78,0004.96,0004.56
